Time_in_sec,Mx,My,Mz
1323445729.95353317,-0.29880622,0.51317984,-0.80842692
1323445730.00066423,-0.29735085,0.51351964,-0.80784035
1323445730.05249047,-0.29971942,0.51292688,-0.80631042
1323445730.10055876,-0.29866272,0.51233453,-0.80828571
1323445730.14966583,-0.29847059,0.51376343,-0.80701202
1323445730.20097780,-0.29898319,0.51302338,-0.80474281
1323445730.25254703,-0.29871488,0.51364315,-0.80676985
1323445730.30222344,-0.29907185,0.51219904,-0.80639714
1323445730.35356593,-0.29846373,0.51205629,-0.80483484
1323445730.40056634,-0.29874891,0.51350611,-0.80511546
1323445730.44954062,-0.29906625,0.51339972,-0.80615073
1323445730.50055647,-0.29826576,0.51446879,-0.80560517
1323445730.54951787,-0.29793403,0.51264954,-0.80455542
1323445730.60053468,-0.29906815,0.51267904,-0.80627298
1323445730.65254664,-0.29977155,0.51209551,-0.80732602
1323445730.70148635,-0.29765582,0.51408535,-0.80404109
1323445730.74955678,-0.29804069,0.51423222,-0.80622786
1323445730.80051541,-0.29967368,0.51363921,-0.80542165
1323445730.84976768,-0.29971761,0.51268613,-0.80630863
1323445730.90052080,-0.29971626,0.51427156,-0.80835712
1323445730.95038700,-0.29845294,0.51414394,-0.80892378
1323445731.00154877,-0.29972672,0.51292825,-0.80643815
1323445731.04956079,-0.30028293,0.51197946,-0.80722582
1323445731.10234475,-0.29929838,0.51342064,-0.80794621
1323445731.15251303,-0.29873756,0.51258916,-0.80956495
1323445731.20078993,-0.29915667,0.51281607,-0.80780685
1323445731.25257945,-0.29954177,0.51318002,-0.80770314
1323445731.30056953,-0.29768953,0.51255280,-0.80708802
1323445731.35024381,-0.30007786,0.51246774,-0.80810940
1323445731.40052080,-0.29791605,0.51377439,-0.80863708
1323445731.45248556,-0.29810417,0.51570976,-0.80942512
1323445731.50223708,-0.29772425,0.51231903,-0.80772489
1323445731.55249977,-0.29751828,0.51268697,-0.80860758
1323445731.60064507,-0.29770190,0.51402062,-0.80939108
1323445731.65251923,-0.29840237,0.51499885,-0.81020039
1323445731.70062780,-0.29848036,0.51390880,-0.80943292
1323445731.75010657,-0.29999268,0.51259506,-0.80886966
1323445731.80159259,-0.29888925,0.51355618,-0.80983478
1323445731.85263276,-0.29989380,0.51283991,-0.80937529
1323445731.90511179,-0.29944983,0.51417059,-0.81050646
1323445731.95364237,-0.29824483,0.51501548,-0.81197453
1323445732.00177860,-0.29828078,0.51415777,-0.81044245
1323445732.05253673,-0.29981053,0.51224643,-0.81025785
1323445732.10052919,-0.29900286,0.51235271,-0.80970508
1323445732.14997339,-0.29930276,0.51284391,-0.81036168
1323445732.20049763,-0.29934466,0.51357299,-0.81100583
1323445732.25358081,-0.29979682,0.51236403,-0.81000328
1323445732.30048466,-0.29919982,0.51078123,-0.80881333
1323445732.35366035,-0.29911903,0.51247168,-0.80945766
1323445732.40165734,-0.29840249,0.51403743,-0.81032091
1323445732.45250797,-0.29802752,0.51307458,-0.81067550
1323445732.50164771,-0.29973018,0.51223117,-0.80885267
1323445732.54982448,-0.30017650,0.51200587,-0.80989420
1323445732.60155606,-0.29896867,0.51345116,-0.81123900
1323445732.65263987,-0.29876217,0.51295441,-0.80995089
1323445732.70182395,-0.29811698,0.51547188,-0.80967879
1323445732.75366187,-0.29806840,0.51464468,-0.81119823
1323445732.80166197,-0.29908803,0.51222545,-0.80894488
1323445732.85371566,-0.29832056,0.51185864,-0.80915493
1323445732.90142131,-0.29784369,0.51366377,-0.80965102
1323445732.94968987,-0.29796436,0.51438451,-0.80940807
1323445733.00153208,-0.29822248,0.51318520,-0.80954099
1323445733.04967070,-0.29850417,0.51319224,-0.80993843
1323445733.10167003,-0.29979950,0.51272506,-0.81000602
1323445733.15252209,-0.29856068,0.51392412,-0.81083804
1323445733.20153403,-0.29759929,0.51474547,-0.80977267
1323445733.25251675,-0.29930544,0.51320493,-0.81036437
1323445733.30164552,-0.29919600,0.51222265,-0.80856872
1323445733.34955788,-0.29971927,0.51174837,-0.80872136
1323445733.40051723,-0.29951119,0.51475984,-0.80924070
1323445733.45264792,-0.29858732,0.51474708,-0.80893540
1323445733.49953151,-0.29744872,0.51411587,-0.80721331
1323445733.54963088,-0.29936996,0.51244950,-0.80705190
1323445733.60157490,-0.29804549,0.51194972,-0.80659384
1323445733.65254641,-0.29828215,0.51257235,-0.80839390
1323445733.70054317,-0.29973739,0.51319396,-0.80885994
1323445733.75250196,-0.29876307,0.51521468,-0.80742037
1323445733.80048966,-0.29786402,0.51364428,-0.80774200
1323445733.85256124,-0.29910186,0.51328635,-0.80678850
1323445733.90243006,-0.29771322,0.51279765,-0.80747306
1323445733.95356369,-0.29754671,0.51375067,-0.80670673
1323445734.00153661,-0.29974303,0.51413316,-0.80657494
1323445734.05259562,-0.29977244,0.51221585,-0.80732691
1323445734.10162997,-0.29973805,0.51170528,-0.80452007
1323445734.15027237,-0.29962617,0.51411086,-0.80453110
1323445734.20153356,-0.29705533,0.51459163,-0.80706781
1323445734.25250173,-0.29737839,0.51446301,-0.80593860
1323445734.30049276,-0.29900151,0.51254618,-0.80512244
1323445734.35364819,-0.29887342,0.51278543,-0.80511713
1323445734.40062308,-0.29755145,0.51456952,-0.80442083
1323445734.45653582,-0.29904622,0.51267487,-0.80588979
1323445734.50151968,-0.29876813,0.51314926,-0.80549598
1323445734.55412960,-0.29924130,0.51182413,-0.80487573
1323445734.60226727,-0.29924151,0.51204121,-0.80258530
1323445734.65363884,-0.29899129,0.51410657,-0.80475098
1323445734.70212245,-0.29718006,0.51408803,-0.80477905
1323445734.75250888,-0.29944131,0.51340121,-0.80591655
1323445734.80164790,-0.29816180,0.51324719,-0.80393547
1323445734.85254550,-0.29858813,0.51229703,-0.80471605
1323445734.90062571,-0.29845431,0.51469845,-0.80434382
1323445734.94999385,-0.29899117,0.51506793,-0.80463046
1323445735.00055814,-0.29862824,0.51278538,-0.80535835
1323445735.05364799,-0.29787481,0.51155668,-0.80365306
1323445735.10198426,-0.29885185,0.51203692,-0.80256397
1323445735.15364742,-0.29775807,0.51410484,-0.80582947
1323445735.20164800,-0.29804179,0.51242971,-0.80646974
1323445735.25247955,-0.29966852,0.51313418,-0.80312580
1323445735.30164957,-0.29829326,0.51327223,-0.80623484
1323445735.34986091,-0.29886511,0.51362509,-0.80486798
1323445735.40049720,-0.29622149,0.51430905,-0.80383688
1323445735.45257950,-0.29912129,0.51314658,-0.80487859
1323445735.50051689,-0.29921839,0.51266098,-0.80437112
1323445735.55364919,-0.29910153,0.51263875,-0.80232728
1323445735.60163903,-0.29991201,0.51193213,-0.80300325
1323445735.65101624,-0.29921535,0.51518422,-0.80400693
1323445735.70054650,-0.29897487,0.51386309,-0.80449367
1323445735.75249672,-0.29934818,0.51362383,-0.80425775
1323445735.80052376,-0.30061790,0.51363254,-0.80381793
1323445735.85262680,-0.29922760,0.51408160,-0.80208975
1323445735.90127850,-0.29835868,0.51263714,-0.80292326
1323445735.95264316,-0.29838297,0.51588666,-0.80294770
1323445736.00164890,-0.29840970,0.51360834,-0.80369693
1323445736.05253124,-0.29845047,0.51260799,-0.79999942
1323445736.10163450,-0.29881421,0.51383245,-0.80168337
1323445736.15251637,-0.29989538,0.51361150,-0.80250496
1323445736.20052242,-0.29738525,0.51263833,-0.80401599
1323445736.24954104,-0.29797888,0.51395679,-0.80291188
1323445736.30052280,-0.29868981,0.51359171,-0.80180216
1323445736.34964442,-0.29888275,0.51324463,-0.80295622
1323445736.40153527,-0.29789102,0.51372296,-0.80366939
1323445736.45250845,-0.29781222,0.51373130,-0.80455643
1323445736.50050163,-0.29851848,0.51468736,-0.80320126
1323445736.55043864,-0.29823416,0.51335788,-0.80292159
1323445736.61251473,-0.29840183,0.51274222,-0.80139840
1323445736.64949489,-0.29885343,0.51420045,-0.80232477
1323445736.70542359,-0.29724804,0.51263547,-0.80388111
1323445736.74948382,-0.29835576,0.51419896,-0.80267954
1323445736.80149817,-0.29992461,0.51361704,-0.80301589
1323445736.85272384,-0.29884365,0.51191521,-0.80243534
1323445736.90049696,-0.29722321,0.51419312,-0.80325419
1323445736.95030928,-0.29819563,0.51289308,-0.80457145
1323445737.00151229,-0.29895645,0.51530170,-0.80399358
1323445737.05354452,-0.29747143,0.51166999,-0.80337715
1323445737.10327888,-0.29748482,0.51443666,-0.80327022
1323445737.15365696,-0.29947165,0.51374424,-0.80413800
1323445737.20063162,-0.29861441,0.51386434,-0.80498332
1323445737.25255609,-0.30017856,0.51460356,-0.80507416
1323445737.30132723,-0.29912770,0.51302761,-0.80500543
1323445737.35016608,-0.29982829,0.51304442,-0.80593520
1323445737.40048671,-0.29795551,0.51435947,-0.80698806
1323445737.45253038,-0.29754761,0.51387101,-0.80670762
1323445737.50216508,-0.29891330,0.51519662,-0.80551845
1323445737.55293989,-0.29955560,0.51424092,-0.80554682
1323445737.60153079,-0.29842675,0.51375508,-0.80624557
1323445737.65260768,-0.29836822,0.51470536,-0.80510312
1323445737.70055461,-0.30010539,0.51341110,-0.80620766
1323445737.75002360,-0.29784876,0.51373827,-0.80519515
1323445737.80154300,-0.29853678,0.51421010,-0.80358088
1323445737.85262871,-0.29921007,0.51350069,-0.80412197
1323445737.90200543,-0.29898220,0.51386446,-0.80462140
1323445737.95358944,-0.29723290,0.51529986,-0.80555457
1323445738.00164628,-0.29919052,0.51460189,-0.80591142
1323445738.05267334,-0.29837844,0.51314497,-0.80547458
1323445738.10063410,-0.29810584,0.51338005,-0.80520666
1323445738.14989805,-0.29917771,0.51483983,-0.80565774
1323445738.20152664,-0.29863891,0.51519102,-0.80524874
1323445738.25361824,-0.29846251,0.51482016,-0.80447245
1323445738.30048466,-0.30087420,0.51433247,-0.80141765
1323445738.35252237,-0.29846260,0.51385874,-0.80459297
1323445738.40165138,-0.29952458,0.51399469,-0.80503404
1323445738.45651364,-0.29835373,0.51374114,-0.80496818
1323445738.50062037,-0.29953650,0.51363641,-0.80528677
1323445738.55351520,-0.29738164,0.51215690,-0.80401236
1323445738.60049033,-0.29908937,0.51277995,-0.80436492
1323445738.65257573,-0.29977155,0.51423544,-0.80479461
1323445738.70177174,-0.29738873,0.51408112,-0.80389911
1323445738.75650978,-0.29780492,0.51372993,-0.80442870
1323445738.80063295,-0.29965851,0.51277173,-0.80299532
1323445738.85657048,-0.30004910,0.51289636,-0.80301762
1323445738.89264274,-0.29793394,0.51361096,-0.80443496
1323445738.94454479,-0.29916087,0.51844198,-0.80491847
1323445738.99353099,-0.29889828,0.51903951,-0.80478102
1323445739.04566598,-0.29778734,0.51839024,-0.80127758
1323445739.09360027,-0.29925841,0.51625067,-0.80236155
1323445739.14465022,-0.29821688,0.51866579,-0.80423170
1323445739.19256115,-0.29765630,0.51805139,-0.80356002
1323445739.24177837,-0.29799676,0.51732516,-0.80280948
1323445739.29251337,-0.29845756,0.51806408,-0.80398595
1323445739.34246874,-0.29852083,0.51793265,-0.80284250
1323445739.40052915,-0.29846117,0.51854551,-0.80398959
1323445739.44460869,-0.29745325,0.51685756,-0.80468637
1323445739.49443722,-0.29869252,0.51748461,-0.80590469
1323445739.54557967,-0.29889208,0.51723564,-0.80489516
1323445739.59257817,-0.29938796,0.51699644,-0.80453861
1323445739.64454436,-0.30086312,0.51930434,-0.80514508
1323445739.69271898,-0.29802734,0.51927722,-0.80537170
1323445739.74158239,-0.29800475,0.51722986,-0.80522853
1323445739.80049682,-0.29691267,0.51696801,-0.80427557
1323445739.84165144,-0.29865578,0.51372874,-0.80345660
1323445739.89352298,-0.29907209,0.51808786,-0.80567503
1323445739.94164324,-0.30021182,0.51905650,-0.80510765
1323445739.99355268,-0.29798171,0.51902819,-0.80460340
1323445740.04453301,-0.29846129,0.51758409,-0.80411005
1323445740.09255171,-0.29989663,0.51651937,-0.80443567
1323445740.14451742,-0.29920289,0.51820964,-0.80568308
1323445740.20048904,-0.29729921,0.51831698,-0.80634367
1323445740.24450231,-0.29845047,0.51399994,-0.80663061
1323445740.30048418,-0.29951751,0.51774222,-0.80671561
1323445740.34153652,-0.29807833,0.51457661,-0.80457705
1323445740.39370799,-0.29883793,0.51760918,-0.80616814
1323445740.44219685,-0.29746279,0.51892573,-0.80686629
1323445740.49252200,-0.29846746,0.51724803,-0.80652732
1323445740.54164076,-0.29785103,0.51794499,-0.80471587
1323445740.59251738,-0.29975742,0.51819867,-0.80405802
1323445740.65262914,-0.29858363,0.51736701,-0.80627984
1323445740.69402766,-0.29738650,0.51554620,-0.80594671
1323445740.74563932,-0.29886726,0.51665336,-0.80679965
1323445740.79363728,-0.29885983,0.51761335,-0.80655140
1323445740.84453464,-0.29784372,0.51794356,-0.80458814
1323445740.89263368,-0.29804206,0.51831859,-0.80574769
1323445740.94165134,-0.29905289,0.51844472,-0.80529457
1323445740.99253416,-0.29774472,0.51914984,-0.80497330
1323445741.05357361,-0.29822430,0.51770574,-0.80447996
1323445741.09388828,-0.29972583,0.51494777,-0.80390584
1323445741.14451957,-0.29813743,0.51663089,-0.80535889
1323445741.19365001,-0.29722437,0.51806235,-0.80506444
1323445741.24858403,-0.29787731,0.51951230,-0.80498314
1323445741.29263043,-0.29952607,0.51711965,-0.80467433
1323445741.34990668,-0.29933941,0.51830918,-0.80352664
1323445741.39251542,-0.29902321,0.51661307,-0.80273324
1323445741.44555497,-0.29698187,0.51842338,-0.80530840
1323445741.49349594,-0.29743662,0.51853687,-0.80418813
1323445741.54553604,-0.30037308,0.51855987,-0.80345762
1323445741.59250998,-0.29739380,0.51768750,-0.80354303
1323445741.64386153,-0.29703233,0.51852983,-0.80391127
1323445741.69308138,-0.29693154,0.51949537,-0.80429465
1323445741.74153638,-0.29941157,0.51820272,-0.80480313
1323445741.80049944,-0.29804048,0.51829493,-0.80345541
1323445741.84097719,-0.29902524,0.51493096,-0.80297607
1323445741.89361167,-0.29959449,0.51749319,-0.80582672
1323445741.94553471,-0.29852027,0.51845992,-0.80730283
1323445741.99251294,-0.29884085,0.51818728,-0.80388045
1323445742.04161954,-0.29909065,0.51782769,-0.80376422
1323445742.09349775,-0.29839006,0.51781088,-0.80283445
1323445742.15369391,-0.29916269,0.51868272,-0.80492026
1323445742.19251561,-0.29917300,0.51616091,-0.80541217
1323445742.24449515,-0.29894963,0.51712644,-0.80591619
1323445742.30049229,-0.29749560,0.51588088,-0.80328113
1323445742.34456015,-0.29837587,0.51396239,-0.80306095
1323445742.39256406,-0.29766977,0.51771671,-0.80610502
1323445742.44451547,-0.29780236,0.51807922,-0.80611485
1323445742.49381757,-0.29925796,0.51795644,-0.80441099
1323445742.54979658,-0.29859209,0.51770586,-0.80411810
1323445742.59249759,-0.29921705,0.51638633,-0.80388820
1323445742.64961195,-0.29872918,0.51867008,-0.80413246
1323445742.69428301,-0.29938796,0.51699644,-0.80453861
1323445742.74454927,-0.29950696,0.51651508,-0.80441433
1323445742.79255176,-0.30026260,0.51627874,-0.80407202
1323445742.84456778,-0.29861680,0.51710963,-0.80462450
1323445742.90165973,-0.29863578,0.51867563,-0.80476403
1323445742.94237137,-0.29973114,0.51663131,-0.80379075
1323445742.99653387,-0.29846025,0.51628524,-0.80652010
1323445743.05364919,-0.29913807,0.51831746,-0.80453432
1323445743.09419656,-0.29994270,0.51506263,-0.80315453
1323445743.14452243,-0.29842904,0.51796180,-0.80576628
1323445743.20057178,-0.29845813,0.51892877,-0.80615675
1323445743.24452186,-0.30017880,0.51482064,-0.80278373
1323445743.30053473,-0.29928547,0.51675987,-0.80504060
1323445743.35027981,-0.29984933,0.51506817,-0.80378610
1323445743.39269757,-0.29901510,0.51339000,-0.80525649
1323445743.45263529,-0.29835027,0.51797009,-0.80665338
1323445743.49418259,-0.29950818,0.51375121,-0.80477673
1323445743.54163957,-0.29874128,0.51638895,-0.80462623
1323445743.60082555,-0.30008250,0.51638794,-0.80317158
1323445743.64209294,-0.29967359,0.51460063,-0.80530113
1323445743.70062757,-0.29930639,0.51760513,-0.80530244
1323445743.75014353,-0.29839879,0.51312554,-0.80356556
1323445743.79252839,-0.29961705,0.51386881,-0.80440152
1323445743.85363650,-0.29879791,0.51615942,-0.80564636
1323445743.89403534,-0.29771045,0.51553792,-0.80481839
1323445743.94565964,-0.29858544,0.51760775,-0.80628169
1323445744.00064325,-0.29967976,0.51640451,-0.80518699
1323445744.04196024,-0.29942772,0.51469731,-0.80325109
1323445744.09251308,-0.29927525,0.51618040,-0.80720061
1323445744.14194679,-0.29887658,0.51711249,-0.80463874
1323445744.20052314,-0.29796180,0.51734185,-0.80446303
1323445744.25263262,-0.29940313,0.51433206,-0.80286515
1323445744.29391646,-0.29982132,0.51229870,-0.80363756
1323445744.35364819,-0.29793912,0.51625592,-0.80419940
1323445744.40055585,-0.29960784,0.51458812,-0.80415148
1323445744.44457030,-0.29915512,0.51493239,-0.80298316
1323445744.50072408,-0.29845509,0.51578021,-0.80422419
1323445744.54986000,-0.29921311,0.51311737,-0.80195475
1323445744.59252739,-0.29893836,0.51385611,-0.80385500
1323445744.65263343,-0.29906130,0.51664364,-0.80566418
1323445744.70195961,-0.29868579,0.51481605,-0.80384797
1323445744.74167466,-0.29977381,0.51277035,-0.80274695
1323445744.80056667,-0.29885849,0.51566690,-0.80450016
1323445744.85251784,-0.30041969,0.51443601,-0.80024749
1323445744.90055871,-0.29840678,0.51517010,-0.80345327
1323445744.94965434,-0.29844061,0.51481599,-0.80408925
1323445745.00049186,-0.30047464,0.51300430,-0.80138636
1323445745.05263948,-0.30053586,0.51241511,-0.80253148
1323445745.10369897,-0.29876554,0.51396668,-0.80308229
1323445745.14955330,-0.29808876,0.51323330,-0.80265808
1323445745.19364119,-0.29740819,0.51394135,-0.80198920
1323445745.25252247,-0.29928818,0.51712096,-0.80504334
1323445745.30109763,-0.29893231,0.51323074,-0.80155820
1323445745.34952641,-0.29897353,0.51191664,-0.80244243
1323445745.40052557,-0.29907468,0.51373857,-0.80398893
1323445745.45362663,-0.29797328,0.51515746,-0.80266541
1323445745.50148869,-0.29978606,0.51166779,-0.80082983
1323445745.54956126,-0.29952157,0.51298600,-0.80057007
1323445745.60052776,-0.30036461,0.51254928,-0.80405104
1323445745.65261555,-0.29886803,0.51420325,-0.80258030
1323445745.70054221,-0.29784438,0.51431501,-0.80277973
1323445745.75045252,-0.29898444,0.51239938,-0.80257380
1323445745.80048466,-0.29683906,0.51394951,-0.80335879
1323445745.85358500,-0.29868722,0.51226926,-0.80191994
1323445745.90238953,-0.29792911,0.51589346,-0.80406892
1323445745.94225788,-0.29936367,0.51374698,-0.80451411
1323445746.00152564,-0.29827869,0.51540935,-0.80344790
1323445746.05251908,-0.30000147,0.51432943,-0.80200654
1323445746.10163593,-0.29966503,0.51383126,-0.80071127
1323445746.15411925,-0.30034339,0.51458830,-0.80342776
1323445746.20050907,-0.29946333,0.51458389,-0.80388886
1323445746.25254011,-0.29917625,0.51385480,-0.80348599
1323445746.30048537,-0.29844385,0.51250988,-0.80216300
1323445746.35254550,-0.29938772,0.51324749,-0.80272925
1323445746.40061665,-0.29923660,0.51314521,-0.80463022
1323445746.45254135,-0.29750964,0.51287901,-0.80389714
1323445746.50051570,-0.29948616,0.51470840,-0.80427301
1323445746.55368710,-0.30101579,0.51375854,-0.80396795
1323445746.60050344,-0.29941323,0.51373309,-0.80311608
1323445746.65353656,-0.29873690,0.51482582,-0.80474216
1323445746.70217562,-0.29990506,0.51471823,-0.80480534
1323445746.75365186,-0.30041575,0.51255900,-0.80494523
1323445746.80125785,-0.29873511,0.51458508,-0.80474037
1323445746.85351181,-0.30158940,0.51221216,-0.80513436
1323445746.90116072,-0.29989865,0.51483721,-0.80467850
1323445746.95248842,-0.29869691,0.51337606,-0.80422032
1323445747.00155520,-0.30023652,0.51278859,-0.80404574
1323445747.04996228,-0.29908580,0.51229852,-0.80436128
1323445747.10182023,-0.29887104,0.51168007,-0.80294448
1323445747.15249729,-0.29835564,0.51302046,-0.80509049
1323445747.20051765,-0.30006889,0.51340419,-0.80556893
1323445747.25253820,-0.29947817,0.51266384,-0.80438536
1323445747.30164790,-0.29976976,0.51399475,-0.80479276
1323445747.34982347,-0.29957661,0.51412475,-0.80592912
1323445747.40154004,-0.29863992,0.51434994,-0.80537015
1323445747.45254254,-0.29949963,0.51437378,-0.80681801
1323445747.50179935,-0.30133411,0.51281106,-0.80512464
1323445747.55365133,-0.29989257,0.51207191,-0.80491316
1323445747.60064197,-0.30021182,0.51338476,-0.80353928
1323445747.65252352,-0.30133468,0.51367575,-0.80729544
1323445747.70063853,-0.29995629,0.51376659,-0.80582005
1323445747.75370359,-0.29975167,0.51254910,-0.80465418
1323445747.80050778,-0.29883757,0.51268172,-0.80676973
1323445747.85247397,-0.29941434,0.51332253,-0.80998915
